Weather History for KONA - July, 2013

Change the Weather History Date:

Friday, July 19, 2013

  Actual Average Record
Temperature  
Mean Temperature 79 °F -  
Max Temperature 89 °F 80 °F 93 °F (1991)
Min Temperature 68 °F 63 °F 53 °F (2000)
Cooling Degree Days 14    
Growing Degree Days 29 (Base 50)    
Moisture  
Dew Point 63 °F    
Average Humidity 57    
Maximum Humidity 88    
Minimum Humidity 43    
Precipitation  
Precipitation 0.11 in - - ()
Sea Level Pressure  
Sea Level Pressure 29.81 in    
Wind  
Wind Speed 8 mph (WNW)    
Max Wind Speed 18 mph    
Max Gust Speed 24 mph    
Visibility 10 miles    
Events Rain , Thunderstorm    
Averages and records for this station are not official NWS values.
T = Trace of Precipitation, MM = Missing Value Source: NWS Daily Summary

Daily Weather History Graph

Daily Weather History Graph

Search for Another Location

Airport or City:

Trip Planner

Search our weather history database for the weather conditions in past years. The results will help you decide how hot, cold, wet, or windy it might be!

Date:

Astronomy

Jul. 19, 2013 Rise Set
Actual Time 5:41 AM CDT 8:44 PM CDT
Civil Twilight 5:07 AM CDT 9:18 PM CDT
Nautical Twilight 4:22 AM CDT 10:02 PM CDT
Astronomical Twilight 3:29 AM CDT 10:55 PM CDT
Moon 5:46 PM CDT (7/19) 2:23 AM CDT (7/19)
Length of Visible Light 16h 11m
Length of Day
15h 02m
Waxing Gibbous, 87% of the Moon is Illuminated
Jul 19
Waxing Gibbous
Jul 22
Full
Jul 29
Last Quarter
Aug 6
New
Aug 14
First Quarter

Hourly Weather History & Observations

Time (CDT) Temp. Heat Index Dew Point Humidity Pressure Visibility Wind Dir Wind Speed Gust Speed Precip Events Conditions
12:15 AM 82.4 °F 83.9 °F 64.4 °F 54% 29.83 in 10.0 mi WSW 8.1 mph 16.1 mph N/A   Clear
12:35 AM 80.6 °F 82.3 °F 64.4 °F 58% 29.83 in 10.0 mi SW 9.2 mph - N/A   Clear
12:55 AM 80.6 °F 81.8 °F 62.6 °F 54% 29.82 in 10.0 mi SW 10.4 mph - N/A   Clear
1:15 AM 80.6 °F 81.8 °F 62.6 °F 54% 29.81 in 10.0 mi SW 6.9 mph - N/A   Clear
1:35 AM 80.6 °F 81.8 °F 62.6 °F 54% 29.80 in 10.0 mi SW 10.4 mph - N/A   Clear
1:55 AM 80.6 °F 81.8 °F 62.6 °F 54% 29.80 in 10.0 mi SW 6.9 mph - N/A   Clear
2:15 AM 80.6 °F 81.8 °F 62.6 °F 54% 29.79 in 10.0 mi WSW 10.4 mph - N/A   Clear
2:35 AM 80.6 °F 82.3 °F 64.4 °F 58% 29.78 in 10.0 mi SW 5.8 mph - N/A   Clear
2:55 AM 80.6 °F 81.8 °F 62.6 °F 54% 29.77 in 10.0 mi SW 8.1 mph - N/A   Clear
3:15 AM 80.6 °F 81.8 °F 62.6 °F 54% 29.76 in 10.0 mi WSW 8.1 mph - N/A   Clear
3:35 AM 80.6 °F 81.8 °F 62.6 °F 54% 29.76 in 10.0 mi WSW 11.5 mph 16.1 mph N/A   Clear
3:56 AM 80.6 °F 81.8 °F 62.6 °F 54% 29.76 in 10.0 mi WSW 10.4 mph 16.1 mph N/A   Scattered Clouds
4:16 AM 80.6 °F 81.8 °F 62.6 °F 54% 29.76 in 10.0 mi West 8.1 mph - N/A   Mostly Cloudy
4:35 AM 80.6 °F 81.8 °F 62.6 °F 54% 29.78 in 10.0 mi West 9.2 mph 19.6 mph N/A   Overcast
4:55 AM 80.6 °F 82.3 °F 64.4 °F 58% 29.77 in 10.0 mi West 8.1 mph - N/A   Mostly Cloudy
5:16 AM 80.6 °F 82.3 °F 64.4 °F 58% 29.78 in 10.0 mi West 8.1 mph - N/A Rain Light Rain
5:35 AM 77.0 °F - 66.2 °F 69% 29.79 in 10.0 mi West 9.2 mph - 0.02 in Rain Light Rain
5:55 AM 75.2 °F - 68.0 °F 78% 29.79 in 10.0 mi West 13.8 mph 20.7 mph 0.07 in Rain , Thunderstorm Light Thunderstorms and Rain
6:16 AM 75.2 °F - 66.2 °F 73% 29.79 in 10.0 mi West 10.4 mph 16.1 mph 0.01 in   Light Drizzle
6:35 AM 75.2 °F - 64.4 °F 69% 29.79 in 10.0 mi Calm Calm - 0.01 in   Clear
6:55 AM 75.2 °F - 64.4 °F 69% 29.78 in 10.0 mi Calm Calm - 0.01 in   Clear
7:16 AM 73.4 °F - 68.0 °F 83% 29.78 in 10.0 mi Calm Calm - N/A   Clear
7:35 AM 73.4 °F - 68.0 °F 83% 29.79 in 10.0 mi SW 4.6 mph - N/A   Clear
7:55 AM 77.0 °F - 64.4 °F 65% 29.79 in 10.0 mi West 4.6 mph - N/A   Clear
8:16 AM 77.0 °F - 64.4 °F 65% 29.79 in 10.0 mi SW 3.5 mph - N/A   Clear
8:35 AM 78.8 °F - 66.2 °F 65% 29.79 in 10.0 mi WNW 5.8 mph - N/A   Clear
8:55 AM 78.8 °F - 66.2 °F 65% 29.79 in 10.0 mi Calm Calm - N/A   Clear
9:16 AM 80.6 °F 82.7 °F 66.2 °F 61% 29.78 in 10.0 mi West 3.5 mph - N/A   Clear
9:35 AM 80.6 °F 83.2 °F 68.0 °F 65% 29.78 in 10.0 mi WNW 6.9 mph - N/A   Clear
9:55 AM 82.4 °F 85.4 °F 68.0 °F 62% 29.79 in 10.0 mi West 3.5 mph - N/A   Clear
10:16 AM 82.4 °F 85.4 °F 68.0 °F 62% 29.78 in 10.0 mi WSW 6.9 mph - N/A   Clear
10:35 AM 86.0 °F 90.4 °F 69.8 °F 58% 29.78 in 10.0 mi West 9.2 mph - N/A   Clear
10:55 AM 86.0 °F 89.4 °F 68.0 °F 55% 29.79 in 10.0 mi West 10.4 mph 16.1 mph N/A   Clear
11:15 AM 87.8 °F 91.4 °F 68.0 °F 52% 29.78 in 10.0 mi West 9.2 mph 16.1 mph N/A   Clear
11:35 AM 89.6 °F 91.1 °F 64.4 °F 43% 29.79 in 10.0 mi West 11.5 mph 18.4 mph N/A   Clear
11:55 AM 87.8 °F 90.4 °F 66.2 °F 49% 29.79 in 10.0 mi WNW 17.3 mph 21.9 mph N/A   Scattered Clouds
12:15 PM 89.6 °F 93.4 °F 68.0 °F 49% 29.80 in 10.0 mi NW 15.0 mph - N/A   Scattered Clouds
12:35 PM 87.8 °F 89.4 °F 64.4 °F 46% 29.80 in 10.0 mi NW 12.7 mph 21.9 mph N/A   Clear
12:55 PM - - - N/A% - - North - - N/A   Unknown
1:15 PM 87.8 °F 88.5 °F 62.6 °F 43% 29.81 in - WNW 16.1 mph 23.0 mph 0.03 in   Clear
1:35 PM 87.8 °F 89.4 °F 64.4 °F 46% 29.80 in 10.0 mi WNW 11.5 mph 23.0 mph 0.03 in   Clear
1:56 PM 87.8 °F 88.5 °F 62.6 °F 43% 29.81 in 10.0 mi NW 18.4 mph 24.2 mph N/A   Clear
2:15 PM 86.0 °F 86.6 °F 62.6 °F 45% 29.81 in 10.0 mi NW 15.0 mph 19.6 mph N/A   Clear
2:35 PM 86.0 °F 86.6 °F 62.6 °F 45% 29.81 in 10.0 mi WNW 15.0 mph 20.7 mph N/A   Clear
2:56 PM 86.0 °F 87.3 °F 64.4 °F 48% 29.81 in 10.0 mi NW 10.4 mph 19.6 mph N/A   Scattered Clouds
3:15 PM 86.0 °F 86.6 °F 62.6 °F 45% 29.82 in 10.0 mi WNW 9.2 mph - N/A   Mostly Cloudy
3:35 PM 86.0 °F 87.3 °F 64.4 °F 48% 29.81 in 10.0 mi NNW 12.7 mph 17.3 mph N/A   Scattered Clouds
3:56 PM 86.0 °F 86.6 °F 62.6 °F 45% 29.81 in 10.0 mi NW 11.5 mph 19.6 mph N/A   Scattered Clouds
4:15 PM 84.2 °F 84.4 °F 60.8 °F 45% 29.82 in 10.0 mi WNW 10.4 mph - N/A   Scattered Clouds
4:35 PM 86.0 °F 86.1 °F 60.8 °F 43% 29.82 in 10.0 mi WNW 12.7 mph 19.6 mph N/A   Clear
4:55 PM 84.2 °F 84.4 °F 60.8 °F 45% 29.82 in 10.0 mi WNW 11.5 mph - N/A   Clear
5:15 PM 82.4 °F 82.9 °F 60.8 °F 48% 29.82 in 10.0 mi NNW 9.2 mph 17.3 mph N/A   Clear
5:36 PM 82.4 °F 82.5 °F 59.0 °F 45% 29.82 in 10.0 mi NNW 11.5 mph 18.4 mph N/A   Clear
5:55 PM 82.4 °F 82.5 °F 59.0 °F 45% 29.82 in 10.0 mi NW 12.7 mph 16.1 mph N/A   Clear
6:15 PM 82.4 °F 82.5 °F 59.0 °F 45% 29.82 in 10.0 mi NW 11.5 mph 18.4 mph N/A   Clear
6:36 PM 80.6 °F 80.8 °F 57.2 °F 45% 29.82 in 10.0 mi NW 11.5 mph 16.1 mph N/A   Clear
6:55 PM 80.6 °F 80.8 °F 57.2 °F 45% 29.82 in 10.0 mi NW 10.4 mph - N/A   Clear
7:15 PM 78.8 °F - 57.2 °F 47% 29.82 in 10.0 mi NNW 6.9 mph - N/A   Clear
7:36 PM 78.8 °F - 59.0 °F 51% 29.83 in 10.0 mi NW 8.1 mph - N/A   Clear
7:55 PM 78.8 °F - 59.0 °F 51% 29.83 in 10.0 mi NW 6.9 mph - N/A   Clear
8:15 PM 77.0 °F - 59.0 °F 54% 29.83 in 10.0 mi NW 4.6 mph - N/A   Clear
8:36 PM 77.0 °F - 60.8 °F 57% 29.84 in 10.0 mi NW 3.5 mph - N/A   Clear
8:55 PM 77.0 °F - 59.0 °F 54% 29.84 in 10.0 mi West 3.5 mph - N/A   Clear
9:15 PM 77.0 °F - 60.8 °F 57% 29.85 in 10.0 mi WNW 3.5 mph - N/A   Clear
9:36 PM 73.4 °F - 64.4 °F 73% 29.85 in 10.0 mi Calm Calm - N/A   Clear
9:55 PM 71.6 °F - 62.6 °F 73% 29.86 in 10.0 mi NW 3.5 mph - N/A   Clear
10:15 PM 69.8 °F - 62.6 °F 78% 29.86 in 10.0 mi Calm Calm - N/A   Clear
10:36 PM 69.8 °F - 62.6 °F 78% 29.86 in 10.0 mi Calm Calm - N/A   Clear
10:55 PM 69.8 °F - 62.6 °F 78% 29.87 in 10.0 mi Calm Calm - N/A   Clear
11:15 PM 69.8 °F - 62.6 °F 78% 29.87 in 10.0 mi Calm Calm - N/A   Clear
11:36 PM 69.8 °F - 64.4 °F 83% 29.88 in 10.0 mi Calm Calm - N/A   Clear
11:55 PM 68.0 °F - 64.4 °F 88% 29.89 in 10.0 mi Calm Calm - N/A   Clear